SCP
0 0 0 0 0 0 0 0 0 0 0 0 0 0 -0 -0 0 0 0 0 0 0 0 0 0 0 0 0 0 0 0 0 0 0 0 0 0 0 0 0 0 0 0 0
0 0 0 0 0 0 0 0 0 0 0 0 -0 -0 -0 0 0 0 0 0 0 0 0 -0 -0 -0 0 0 0 0 0 0 0 0 0 0 0 0 0 0 0 0 0 0
0 0 0 0 0 0 0 0 0 0 0 0 0 -0 -0 0 0 0 0 0 0 0 -0 -0 -0 -0 -0 0 0 0 0 0 0 0 0 0 0 0 0 0 0 0 0 0
0 0 0 0 0 0 0 0 0 0 0 0 0 -0 0 0 0 0 0 0 0 0 0 -0 -0 -0 0 0 0 0 0 0 0 0 0 0 0 0 0 0 0 0 0 0
0 -0 -0 0 0 0 0 0 0 0 0 0 0 0 0 0 0 0 0 0 0 0 0 0 0 0 0 0 0 0 0 0 0 0 0 0 0 0 0 0 0 0 0 0
0 0 0 0 0 0 0 0 0 0 0 0 0 0 0 0 0 0 0 0 0 0 0 0 0 0 0 0 0 0 0 0 0 0 0 0 0 0 0 0 0 0 0 0
0 0 0 0 0 0 0 0 0 0 0 0 0 0 0 0 0 0 0 0 0 0 0 0 0 0 0 0 0 0 0 0 0 0 0 0 0 0 0 0 0 0 0 0
0 0 0 0 0 0 0 0 0 -0 0 0 0 0 0 0 0 0 0 0 0 0 0 0 0 0 0 0 0 0 0 0 0 0 0 0 0 0 0 0 0 0 0 0
0 0 0 0 0 0 0 0 0 0 0 0 0 0 0 0 0 0 0 0 0 0 0 0 0 0 0 0 0 0 0 0 0 0 0 0 0 0 0 0 0 -0 -0 -0
0 0 0 0 0 0 0 0 0 0 0 0 0 0 0 0 0 0 0 0 0 0 0 0 0 0 0 0 0 0 0 0 0 0 0 0 0 0 0 0 -0 -0 -0 -0
0 0 0 -0 -0 0 0 0 0 0 0 0 0 0 0 0 0 0 0 0 0 0 0 0 0 0 0 0 0 0 0 0 0 0 0 0 0 0 0 0 -0 -0 -0 -0
0 0 0 0 -0 0 0 0 0 0 0 0 0 0 0 0 0 0 0 0 0 0 0 0 0 0 0 0 0 0 0 0 0 0 0 0 0 0 0 0 0 0 0 0
0 0 0 0 0 0 0 0 0 0 0 0 0 0 0 0 0 0 0 0 0 0 0 0 0 0 0 0 0 0 0 0 0 0 0 0 0 0 0 0 0 0 0 0
-0 -0 -0 0 0 0 0 0 0 0 0 0 0 0 0 0 0 0 0 0 0 0 0 0 0 0 0 0 0 0 0 0 0 0 0 0 0 0 0 0 0 0 0 0
-0 -0 -0 -0 0 0 0 0 0 0 0 0 0 0 0 0 0 0 0 0 0 0 0 0 0 0 0 0 0 0 0 0 0 0 0 0 0 0 0 0 0 0 0 0
-0 -0 -0 0 0 0 0 0 0 0 0 0 0 0 0 0 0 0 0 0 0 0 0 0 0 0 0 0 0 0 0 0 0 0 0 0 0 0 0 0 0 0 0 0
0 -0 -0 0 0 0 0 0 0 0 0 0 0 0 0 0 0 0 0 0 0 0 0 0 0 0 0 0 0 0 0 0 0 0 0 0 0 0 0 0 0 0 0 0
0 -0 -0 0 0 0 0 0 0 0 0 0 0 0 0 0 0 0 0 0 0 0 0 0 0 0 0 0 0 0 0 0 0 0 0 0 0 0 0 0 0 0 0 0
0 0 0 0 0 0 0 0 0 0 0 0 0 0 0 0 0 0 0 0 0 0 0 0 0 0 0 0 0 0 0 0 0 0 0 0 0 0 0 0 0 0 0 0
-0 0 0 0 0 0 0 0 0 0 0 0 0 0 0 0 0 0 0 0 0 0 0 0 0 0 0 0 0 0 0 0 0 0 0 0 0 0 0 0 0 0 0 0
-0 0 0 0 0 0 0 0 0 0 0 0 0 0 0 0 0 0 0 0 0 0 0 0 0 0 0 0 0 0 0 0 0 0 0 0 0 0 0 0 0 0 0 0
-0 0 0 0 0 0 0 -0 0 0 0 0 0 0 0 0 0 0 0 0 0 0 0 0 0 0 0 0 0 0 0 0 0 0 0 0 0 0 0 0 0 0 0 0
-0 -0 0 0 0 0 0 0 0 0 0 0 0 0 -0 0 0 0 0 0 0 0 0 0 0 0 0 0 0 0 0 0 0 0 0 0 0 0 0 0 0 0 0 0
0 0 0 0 0 0 0 0 0 0 0 0 0 0 -0 -0 0 0 0 0 0 0 0 0 0 0 0 0 0 0 0 0 0 0 0 0 0 0 0 0 0 0 0 0
0 0 0 0 0 0 0 0 0 0 0 0 0 0 -0 -0 -0 0 0 0 0 0 0 0 0 0 0 0 0 0 0 0 0 0 0 0 0 0 0 0 0 0 0 0
0 0 0 0 -0 0 0 0 0 0 0 0 0 0 0 0 -0 -0 0 0 0 0 0 0 0 0 0 0 0 0 0 0 0 0 0 0 0 0 0 0 0 0 0 0
0 0 0 0 0 0 0 0 0 0 0 0 0 0 0 0 0 0 0 0 0 0 0 0 0 0 0 0 0 0 0 0 0 0 0 0 0 0 0 0 0 0 0 0
Wind_Speed
4 3 3 4 4 6 6 7 7 6 6 8 6 5 4 3 3 3 4 4 5 6 6 6 6 6 6 6 6 6 6 6 6 5 4 4 3 3 3 3 4 3 3 2
2 2 2 4 5 6 7 5 6 4 6 6 3 2 2 3 4 5 5 6 6 6 6 7 7 7 7 7 6 6 6 6 5 4 4 4 4 4 3 3 3 3 3 3
2 3 2 4 6 7 5 6 7 8 8 3 2 4 6 6 6 6 6 6 7 7 7 8 8 8 8 7 6 7 7 6 5 5 5 5 4 4 4 4 3 3 3 3
1 1 4 7 3 4 5 5 6 5 4 5 5 4 4 5 7 6 6 6 6 6 6 6 6 6 6 6 7 7 7 6 6 6 5 5 5 5 4 3 3 3 3 3
2 3 5 6 2 3 3 4 4 5 3 2 2 2 2 3 5 7 7 6 6 6 6 5 6 6 6 6 6 7 7 7 6 6 6 6 6 5 4 4 3 3 2 3
3 3 5 6 3 2 2 4 3 5 5 3 4 2 5 4 4 4 3 3 4 4 4 4 4 6 7 6 6 7 7 7 6 7 7 7 6 5 3 4 3 3 2 2
4 4 7 6 3 2 3 7 4 5 5 6 6 6 4 2 2 3 2 3 3 4 4 4 4 6 7 6 6 6 5 5 5 6 6 6 5 4 4 4 3 3 2 1
4 3 8 3 3 5 7 3 2 3 4 5 4 2 1 2 2 3 3 3 4 4 3 3 4 6 6 5 5 4 5 5 5 5 4 5 5 4 4 5 4 3 2 0
8 7 5 3 5 4 3 3 3 3 3 4 3 2 2 2 2 2 3 3 4 5 4 3 4 5 6 4 4 5 5 5 4 4 4 4 5 5 4 3 3 3 2 1
3 6 5 4 3 3 2 3 3 3 3 4 4 3 3 2 2 2 2 3 3 5 5 3 3 3 4 3 5 6 5 4 4 5 4 4 3 4 4 3 3 3 2 2
4 5 4 4 3 2 2 1 1 2 3 5 5 4 3 3 2 2 2 3 4 4 4 3 3 3 3 4 5 6 5 4 4 4 5 4 3 2 3 3 4 5 3 3
6 5 4 5 4 2 1 1 2 3 2 2 4 5 4 4 3 3 4 3 4 4 3 3 3 3 3 4 5 6 5 4 3 3 4 4 4 3 4 3 4 4 5 4
5 3 4 5 4 2 2 1 2 3 4 3 3 4 5 4 3 3 4 4 5 4 4 4 4 3 2 3 5 6 5 4 3 4 4 4 4 4 3 3 5 4 3 4
3 1 2 3 3 2 1 2 3 4 3 4 3 4 5 4 4 4 4 4 4 5 4 4 4 3 2 3 5 5 5 5 5 3 4 4 3 3 3 3 2 1 2 3
4 3 4 3 1 0 1 3 4 3 4 4 4 4 5 5 4 3 3 4 5 5 4 4 4 2 2 4 5 5 4 4 3 3 3 3 3 3 3 3 3 2 2 2
3 1 1 1 1 2 2 3 4 3 3 4 4 4 4 5 4 3 3 5 6 5 4 4 3 2 3 4 5 4 3 6 6 4 4 4 3 3 3 3 3 2 2 1
2 2 2 2 2 2 3 3 4 4 4 4 4 4 5 6 5 4 3 3 5 4 3 4 3 2 3 4 5 4 3 4 7 5 3 4 4 4 3 3 3 3 1 1
5 5 5 5 5 4 3 3 3 4 4 4 5 5 5 6 5 4 3 4 5 4 2 2 3 4 4 4 4 4 4 4 4 4 4 4 4 3 3 3 3 3 2 2
2 2 2 2 3 4 4 4 3 3 3 4 6 5 5 4 4 4 4 5 5 3 1 2 6 5 4 4 5 4 5 5 4 4 4 5 4 3 3 3 3 3 3 2
1 2 2 1 2 3 3 3 4 4 3 5 5 5 4 3 4 4 4 3 2 2 3 4 5 4 3 4 6 4 5 5 5 4 4 4 4 3 3 3 3 3 2 2
1 2 3 3 3 2 2 3 4 4 4 5 6 6 5 4 4 4 4 2 1 2 4 6 4 3 3 5 6 4 4 5 4 4 4 4 4 3 3 3 3 2 2 2
1 2 2 2 3 3 2 2 3 4 4 4 5 5 5 4 4 3 2 2 2 4 3 3 3 5 6 7 4 4 5 4 4 4 4 3 3 3 3 3 2 2 2 2
1 2 2 2 3 2 2 2 2 3 4 5 5 5 5 3 3 3 2 0 2 5 4 3 6 9 10 6 4 4 5 5 4 4 3 3 3 3 3 3 2 2 2 2
2 2 1 2 3 3 2 1 2 2 3 3 4 5 5 3 2 1 2 3 5 6 3 5 9 10 9 4 4 4 4 4 4 4 4 3 3 3 3 3 2 2 2 2
2 2 2 3 3 2 2 2 3 3 3 3 3 3 2 2 3 2 3 4 6 7 4 6 10 10 6 4 4 4 4 4 4 4 4 3 3 3 3 2 2 2 1 1
1 1 1 2 2 2 2 2 2 2 3 3 2 2 2 3 4 3 4 4 6 7 5 4 4 6 4 4 5 4 4 4 4 4 4 3 4 3 3 2 2 1 1 1
2 1 1 2 1 1 2 2 2 2 3 4 3 2 3 3 4 4 5 4 4 4 4 4 4 4 4 4 5 4 4 4 4 3 3 3 3 3 2 2 1 1 1 0
Wind_Direction
233 239 213 219 211 194 194 193 195 228 233 253 245 230 219 199 182 166 180 185 186 187 189 184 182 182 180 180 178 171 167 175 189 185 171 167 170 173 168 164 171 168 158 164
283 273 239 258 244 208 213 206 215 235 256 246 226 184 195 199 190 191 199 200 197 192 190 190 190 188 183 184 179 168 171 184 184 169 164 169 174 166 156 157 156 151 166 170
260 308 0 268 236 209 209 205 189 211 231 217 202 192 199 206 205 207 207 203 199 198 198 198 196 189 188 186 172 168 176 180 177 172 173 178 171 161 165 170 160 159 176 173
175 82 241 249 253 212 219 227 211 218 217 202 208 207 202 199 203 214 210 207 204 198 199 198 191 185 179 168 167 172 176 179 180 174 175 171 165 173 178 165 164 173 184 189
147 200 271 289 266 190 198 254 212 206 218 204 153 81 298 216 203 212 210 205 203 196 190 184 184 176 163 165 169 172 181 186 184 177 172 169 176 183 178 164 170 177 179 182
150 186 234 250 273 263 145 270 233 191 199 183 133 140 254 235 208 218 213 197 183 171 159 169 180 164 158 166 171 187 192 188 179 174 174 179 184 180 168 163 174 166 167 179
175 215 256 254 278 95 161 244 250 197 189 174 183 203 219 200 191 186 173 164 150 144 154 174 162 151 157 165 188 195 177 166 167 174 178 177 170 162 156 152 144 146 154 172
161 203 253 248 154 184 224 257 226 196 180 180 196 186 148 148 147 132 121 126 134 137 146 144 146 150 157 181 193 165 152 153 159 163 166 159 153 151 146 145 142 148 141 127
187 212 242 232 218 240 234 230 224 195 184 167 158 150 130 117 110 115 124 135 139 142 133 124 140 151 162 187 159 139 137 143 147 142 142 143 147 146 140 145 147 155 151 172
237 260 265 264 255 274 257 230 217 177 159 150 146 142 125 120 107 106 110 127 130 129 128 135 144 148 163 154 138 132 136 141 139 136 130 126 133 143 146 154 160 163 162 176
248 277 305 298 281 292 311 300 147 132 143 152 144 139 140 139 130 129 118 117 122 129 139 147 137 133 125 126 131 131 133 133 135 136 139 130 121 129 150 162 169 166 179 176
222 227 209 258 283 293 273 243 173 142 119 125 150 152 142 138 136 131 127 119 117 118 125 127 123 120 118 127 135 135 133 137 140 137 137 133 131 102 64 87 104 124 132 141
231 233 221 254 272 260 226 199 154 146 146 138 138 143 137 129 126 120 124 126 135 137 134 125 118 114 118 131 133 137 142 143 137 137 139 138 141 143 124 65 70 87 109 126
248 246 264 250 249 264 211 146 116 102 103 117 123 120 118 112 113 116 134 142 136 125 119 116 110 102 114 129 128 129 130 133 137 142 143 142 149 148 142 135 120 65 49 79
275 244 232 250 244 143 122 121 109 105 103 100 111 122 126 127 134 131 127 124 116 110 108 107 104 96 106 124 125 126 127 130 131 129 130 134 136 132 126 125 124 113 77 55
279 274 182 167 175 160 146 150 146 153 141 133 131 134 132 127 119 105 107 126 126 129 134 124 119 124 117 122 122 118 119 125 126 126 124 121 121 124 124 123 121 117 114 105
195 243 232 217 206 198 197 190 178 172 162 158 158 143 127 117 109 106 103 121 126 126 130 130 133 122 117 123 125 124 121 125 124 119 122 126 125 127 129 128 128 124 113 101
220 223 218 205 192 185 185 176 166 162 167 165 146 136 140 142 145 146 133 119 108 94 94 125 123 117 114 121 124 122 121 120 123 125 123 122 124 126 126 127 126 120 96 86
217 211 215 204 185 166 163 167 162 151 146 140 140 146 150 148 143 138 125 121 126 134 174 134 124 118 118 122 121 120 121 119 116 113 116 118 117 116 119 121 120 118 118 110
159 135 143 145 134 145 153 155 143 131 132 136 131 127 126 130 131 129 122 129 171 178 159 136 128 123 124 126 119 117 120 122 123 121 116 117 118 115 114 116 115 116 117 118
157 136 128 127 117 112 131 141 138 140 140 140 142 147 143 132 129 129 128 139 212 125 130 132 131 133 131 129 121 118 119 120 122 124 124 123 120 117 115 114 111 111 113 109
120 116 118 122 118 110 105 118 131 136 137 139 137 134 128 125 124 118 130 165 160 134 130 136 134 132 130 124 119 119 118 117 117 118 119 122 125 125 122 118 112 106 103 101
121 122 123 129 133 132 112 109 124 135 142 148 147 146 147 149 148 141 147 155 133 132 127 131 130 127 125 116 115 117 117 118 120 121 122 123 123 124 123 118 112 109 110 106
105 104 111 114 109 109 111 118 120 122 128 134 141 144 142 135 115 100 124 127 123 122 117 123 123 122 118 112 112 112 113 116 117 117 114 112 112 113 114 114 111 111 112 106
109 108 109 115 121 139 151 133 110 109 114 114 111 115 127 139 140 131 116 118 119 113 103 112 116 116 111 108 111 112 114 116 117 116 114 116 115 113 112 114 120 123 119 120
110 122 131 139 152 159 148 137 136 141 135 124 109 101 102 103 111 114 111 108 109 108 102 100 106 108 106 108 110 110 109 111 108 107 114 117 116 115 117 117 116 124 130 137
69 77 82 70 68 113 127 136 142 148 148 144 135 127 122 117 115 115 112 109 107 104 101 99 102 106 107 107 107 106 106 106 109 113 114 114 117 119 120 118 119 121 127 156